Precipitable_Water
0.24 0.13 0.12 0.12 0.15 0.17 0.20 0.21 0.20 0.20 0.20 0.19 0.18 0.17 0.15 0.14 0.14 0.16 0.16 0.17 0.20 0.17 0.13 0.14 0.14 0.13 0.12 0.14 0.16 0.18 0.20 0.20 0.21 0.21 0.21 0.21 0.20 0.19 0.20 0.23 0.29 0.35 0.40 0.51 0.63 0.72 0.80 0.89 1.00 1.02 1.10 1.16 1.17 1.18 1.15 1.09 1.14 1.19 1.27 1.22 1.24 1.31 1.31 1.31 1.27 1.26 1.25 1.19 1.15 1.13 1.10 1.06 1.09 1.13 1.17 1.19 1.21 1.21 1.18 1.17 1.19 1.19 1.18 1.16 1.15 1.13
0.22 0.13 0.13 0.16 0.17 0.18 0.19 0.20 0.21 0.20 0.20 0.18 0.17 0.16 0.15 0.15 0.13 0.15 0.15 0.17 0.24 0.17 0.14 0.15 0.13 0.11 0.10 0.11 0.12 0.14 0.16 0.15 0.16 0.17 0.18 0.19 0.20 0.19 0.19 0.18 0.21 0.27 0.38 0.43 0.49 0.60 0.64 0.71 0.90 0.93 1.01 1.08 1.15 1.19 1.21 1.20 1.18 1.21 1.24 1.27 1.26 1.25 1.27 1.31 1.27 1.24 1.26 1.21 1.18 1.12 1.07 1.06 1.09 1.13 1.16 1.17 1.20 1.21 1.18 1.18 1.19 1.19 1.18 1.15 1.12 1.13
0.13 0.11 0.16 0.19 0.21 0.21 0.19 0.19 0.19 0.17 0.16 0.17 0.16 0.15 0.14 0.15 0.16 0.16 0.16 0.19 0.21 0.18 0.14 0.16 0.13 0.12 0.11 0.11 0.11 0.11 0.12 0.12 0.14 0.16 0.16 0.16 0.17 0.18 0.19 0.19 0.19 0.23 0.27 0.33 0.40 0.47 0.55 0.62 0.75 0.93 0.94 1.00 1.07 1.15 1.18 1.21 1.20 1.21 1.22 1.23 1.26 1.24 1.23 1.29 1.27 1.25 1.24 1.25 1.23 1.22 1.12 1.07 1.07 1.13 1.17 1.20 1.22 1.21 1.18 1.18 1.19 1.19 1.19 1.17 1.15 1.17
0.09 0.13 0.17 0.22 0.22 0.19 0.17 0.17 0.16 0.16 0.16 0.14 0.14 0.12 0.11 0.15 0.14 0.11 0.16 0.19 0.19 0.18 0.15 0.16 0.14 0.13 0.13 0.13 0.12 0.11 0.12 0.12 0.13 0.15 0.15 0.17 0.16 0.16 0.17 0.18 0.19 0.20 0.21 0.25 0.31 0.37 0.45 0.52 0.63 0.77 0.92 0.98 0.96 1.06 1.12 1.11 1.13 1.18 1.23 1.22 1.25 1.24 1.28 1.27 1.29 1.30 1.26 1.26 1.25 1.24 1.21 1.18 1.13 1.10 1.15 1.18 1.19 1.18 1.17 1.15 1.16 1.17 1.18 1.17 1.17 1.22
0.12 0.16 0.22 0.21 0.21 0.19 0.16 0.16 0.15 0.13 0.11 0.14 0.14 0.13 0.12 0.13 0.14 0.14 0.14 0.17 0.18 0.17 0.17 0.16 0.13 0.11 0.12 0.11 0.11 0.12 0.13 0.12 0.11 0.13 0.14 0.16 0.18 0.19 0.21 0.22 0.22 0.20 0.20 0.22 0.26 0.31 0.36 0.41 0.49 0.63 0.79 0.95 0.96 0.95 0.99 1.07 1.09 1.12 1.18 1.22 1.19 1.23 1.23 1.25 1.26 1.27 1.29 1.27 1.25 1.24 1.24 1.22 1.16 1.15 1.17 1.18 1.17 1.18 1.17 1.15 1.13 1.16 1.17 1.16 1.15 1.18
0.14 0.18 0.22 0.20 0.19 0.19 0.17 0.15 0.16 0.14 0.11 0.13 0.15 0.14 0.14 0.15 0.14 0.15 0.16 0.15 0.12 0.10 0.15 0.14 0.08 0.07 0.09 0.11 0.11 0.11 0.12 0.12 0.13 0.12 0.11 0.11 0.13 0.16 0.16 0.17 0.19 0.21 0.22 0.22 0.24 0.27 0.31 0.36 0.41 0.50 0.69 0.79 0.91 0.91 0.90 0.89 0.95 1.01 1.10 1.15 1.19 1.18 1.20 1.22 1.25 1.27 1.27 1.27 1.23 1.20 1.18 1.15 1.14 1.14 1.13 1.13 1.13 1.16 1.17 1.17 1.16 1.16 1.17 1.16 1.15 1.14
0.16 0.20 0.20 0.17 0.17 0.17 0.17 0.16 0.17 0.17 0.13 0.11 0.12 0.18 0.17 0.16 0.15 0.14 0.13 0.12 0.08 0.07 0.12 0.16 0.09 0.06 0.08 0.08 0.09 0.09 0.10 0.10 0.10 0.11 0.10 0.10 0.11 0.13 0.14 0.15 0.16 0.17 0.18 0.21 0.24 0.26 0.28 0.30 0.35 0.41 0.51 0.67 0.80 0.86 0.89 0.88 0.84 0.86 0.89 0.95 1.02 1.06 1.08 1.18 1.19 1.20 1.22 1.23 1.22 1.19 1.20 1.20 1.17 1.15 1.17 1.18 1.17 1.19 1.23 1.23 1.21 1.20 1.18 1.15 1.13 1.12
0.17 0.17 0.19 0.19 0.17 0.16 0.15 0.14 0.17 0.18 0.14 0.11 0.18 0.20 0.19 0.16 0.14 0.14 0.13 0.12 0.10 0.13 0.12 0.12 0.11 0.07 0.06 0.06 0.07 0.08 0.09 0.09 0.09 0.10 0.10 0.10 0.10 0.10 0.11 0.13 0.14 0.16 0.17 0.18 0.20 0.22 0.25 0.28 0.30 0.32 0.39 0.53 0.67 0.80 0.85 0.85 0.83 0.80 0.81 0.85 0.87 0.87 0.89 1.03 1.16 1.19 1.22 1.18 1.18 1.19 1.18 1.19 1.18 1.17 1.16 1.18 1.17 1.18 1.22 1.21 1.19 1.17 1.17 1.17 1.16 1.14
0.17 0.16 0.18 0.17 0.17 0.16 0.14 0.17 0.19 0.20 0.16 0.16 0.20 0.21 0.18 0.17 0.16 0.15 0.14 0.12 0.13 0.11 0.08 0.10 0.14 0.08 0.06 0.06 0.07 0.08 0.07 0.07 0.07 0.08 0.08 0.09 0.09 0.10 0.10 0.11 0.12 0.14 0.15 0.17 0.18 0.20 0.22 0.23 0.26 0.31 0.33 0.41 0.56 0.69 0.78 0.83 0.84 0.81 0.79 0.81 0.83 0.85 0.87 0.88 1.00 1.13 1.19 1.21 1.19 1.18 1.18 1.14 1.16 1.17 1.18 1.20 1.19 1.18 1.19 1.20 1.20 1.19 1.19 1.19 1.18 1.15
0.21 0.21 0.21 0.20 0.18 0.14 0.18 0.20 0.21 0.21 0.16 0.20 0.23 0.24 0.22 0.21 0.19 0.17 0.15 0.13 0.12 0.11 0.07 0.09 0.12 0.07 0.06 0.08 0.08 0.09 0.07 0.06 0.06 0.07 0.08 0.09 0.09 0.10 0.10 0.11 0.11 0.12 0.14 0.16 0.17 0.18 0.20 0.23 0.25 0.29 0.35 0.37 0.44 0.56 0.68 0.78 0.82 0.82 0.76 0.76 0.78 0.79 0.81 0.82 0.83 0.93 1.07 1.17 1.17 1.16 1.16 1.15 1.13 1.13 1.13 1.16 1.16 1.16 1.17 1.17 1.17 1.17 1.16 1.15 1.16 1.16
0.24 0.27 0.28 0.22 0.18 0.20 0.20 0.22 0.22 0.22 0.21 0.25 0.24 0.20 0.20 0.19 0.17 0.17 0.16 0.15 0.12 0.08 0.09 0.11 0.13 0.11 0.07 0.08 0.10 0.09 0.08 0.09 0.09 0.09 0.09 0.10 0.10 0.11 0.11 0.11 0.12 0.12 0.13 0.15 0.16 0.18 0.20 0.23 0.26 0.29 0.30 0.35 0.40 0.46 0.54 0.65 0.73 0.77 0.76 0.73 0.73 0.76 0.77 0.77 0.76 0.79 0.90 1.08 1.15 1.15 1.13 1.12 1.11 1.09 1.10 1.12 1.13 1.14 1.14 1.12 1.12 1.12 1.12 1.13 1.11 1.10
0.21 0.23 0.22 0.24 0.26 0.25 0.24 0.20 0.24 0.25 0.24 0.22 0.19 0.17 0.16 0.14 0.15 0.15 0.15 0.16 0.10 0.09 0.11 0.13 0.14 0.14 0.09 0.10 0.13 0.14 0.16 0.16 0.15 0.14 0.12 0.12 0.13 0.14 0.14 0.13 0.13 0.13 0.13 0.14 0.15 0.16 0.18 0.20 0.23 0.26 0.27 0.30 0.35 0.39 0.43 0.49 0.59 0.67 0.73 0.72 0.70 0.72 0.73 0.73 0.72 0.72 0.82 0.96 1.05 1.08 1.07 1.11 1.15 1.14 1.11 1.09 1.10 1.12 1.11 1.12 1.13 1.13 1.12 1.11 1.08 1.05
0.14 0.16 0.21 0.23 0.28 0.23 0.20 0.17 0.19 0.21 0.22 0.20 0.18 0.17 0.12 0.10 0.10 0.08 0.12 0.09 0.10 0.09 0.13 0.14 0.15 0.12 0.11 0.12 0.14 0.17 0.18 0.19 0.20 0.20 0.19 0.18 0.16 0.15 0.16 0.16 0.17 0.16 0.16 0.15 0.15 0.16 0.17 0.19 0.19 0.20 0.23 0.27 0.30 0.35 0.38 0.41 0.46 0.54 0.63 0.67 0.67 0.67 0.69 0.69 0.66 0.66 0.76 0.84 0.93 1.03 1.09 1.04 1.10 1.13 1.11 1.08 1.06 1.05 1.07 1.09 1.08 1.08 1.08 1.07 1.05 1.04
0.11 0.16 0.19 0.19 0.22 0.25 0.22 0.14 0.14 0.13 0.17 0.17 0.14 0.13 0.11 0.08 0.08 0.08 0.09 0.10 0.10 0.12 0.14 0.14 0.17 0.12 0.13 0.14 0.17 0.17 0.20 0.22 0.23 0.23 0.24 0.25 0.26 0.25 0.23 0.21 0.20 0.19 0.18 0.18 0.18 0.18 0.18 0.18 0.19 0.20 0.20 0.23 0.27 0.30 0.37 0.40 0.43 0.47 0.52 0.59 0.61 0.63 0.66 0.65 0.62 0.60 0.66 0.76 0.83 0.93 1.02 1.03 1.02 1.06 1.07 1.09 1.10 1.10 1.08 1.06 1.05 1.04 1.04 1.04 1.02 1.00
0.07 0.08 0.12 0.16 0.13 0.26 0.22 0.18 0.17 0.16 0.17 0.17 0.18 0.16 0.13 0.11 0.09 0.08 0.09 0.08 0.09 0.11 0.14 0.17 0.15 0.11 0.11 0.13 0.18 0.20 0.24 0.26 0.27 0.28 0.29 0.28 0.29 0.30 0.33 0.31 0.30 0.29 0.27 0.24 0.22 0.20 0.19 0.19 0.19 0.19 0.21 0.21 0.24 0.28 0.32 0.38 0.42 0.44 0.47 0.51 0.55 0.58 0.61 0.61 0.59 0.58 0.61 0.69 0.76 0.82 0.88 0.92 0.91 0.91 0.94 0.96 1.02 1.07 1.07 1.06 1.02 1.01 1.00 0.98 0.98 0.97
0.11 0.09 0.13 0.21 0.21 0.23 0.20 0.25 0.24 0.21 0.18 0.20 0.21 0.21 0.16 0.13 0.16 0.11 0.12 0.12 0.12 0.13 0.13 0.15 0.14 0.16 0.15 0.19 0.22 0.24 0.25 0.26 0.27 0.28 0.28 0.28 0.29 0.30 0.30 0.34 0.35 0.35 0.35 0.33 0.30 0.28 0.24 0.21 0.21 0.21 0.22 0.22 0.23 0.27 0.31 0.35 0.41 0.42 0.44 0.47 0.52 0.56 0.58 0.59 0.57 0.57 0.60 0.65 0.71 0.79 0.81 0.82 0.84 0.85 0.87 0.90 0.94 0.97 0.99 0.98 0.96 0.95 0.95 0.95 0.94 0.93
0.12 0.09 0.18 0.20 0.22 0.21 0.22 0.26 0.24 0.25 0.11 0.17 0.19 0.14 0.16 0.23 0.18 0.14 0.15 0.17 0.17 0.15 0.12 0.16 0.15 0.17 0.21 0.20 0.21 0.24 0.26 0.27 0.28 0.27 0.27 0.28 0.29 0.29 0.30 0.31 0.33 0.36 0.37 0.37 0.36 0.34 0.31 0.28 0.24 0.22 0.22 0.22 0.23 0.25 0.28 0.32 0.38 0.42 0.44 0.45 0.49 0.54 0.57 0.57 0.57 0.59 0.62 0.63 0.66 0.72 0.79 0.81 0.82 0.81 0.81 0.84 0.86 0.88 0.89 0.88 0.87 0.87 0.89 0.90 0.89 0.88
0.12 0.11 0.17 0.17 0.16 0.22 0.27 0.27 0.27 0.26 0.23 0.19 0.14 0.17 0.24 0.25 0.24 0.18 0.11 0.13 0.13 0.10 0.10 0.14 0.12 0.12 0.14 0.12 0.21 0.23 0.24 0.24 0.25 0.25 0.26 0.27 0.28 0.29 0.30 0.32 0.33 0.35 0.38 0.40 0.39 0.39 0.38 0.35 0.30 0.26 0.23 0.23 0.22 0.23 0.26 0.31 0.37 0.43 0.46 0.47 0.49 0.54 0.56 0.57 0.59 0.61 0.62 0.60 0.62 0.70 0.76 0.79 0.79 0.79 0.80 0.81 0.82 0.84 0.83 0.82 0.81 0.81 0.82 0.82 0.81 0.77
0.19 0.12 0.16 0.21 0.21 0.26 0.29 0.27 0.23 0.28 0.28 0.20 0.18 0.29 0.18 0.13 0.12 0.18 0.16 0.09 0.09 0.08 0.09 0.11 0.13 0.13 0.14 0.15 0.19 0.20 0.20 0.21 0.23 0.24 0.24 0.25 0.27 0.29 0.31 0.33 0.36 0.38 0.38 0.39 0.39 0.40 0.40 0.41 0.38 0.30 0.25 0.24 0.23 0.24 0.27 0.30 0.35 0.41 0.46 0.49 0.51 0.54 0.58 0.61 0.63 0.63 0.61 0.59 0.61 0.68 0.74 0.76 0.75 0.75 0.77 0.79 0.80 0.80 0.79 0.78 0.78 0.78 0.78 0.76 0.73 0.69
0.23 0.13 0.13 0.23 0.22 0.26 0.27 0.23 0.13 0.17 0.26 0.27 0.30 0.23 0.28 0.22 0.16 0.13 0.15 0.14 0.14 0.09 0.10 0.08 0.11 0.09 0.13 0.17 0.20 0.18 0.20 0.22 0.22 0.23 0.24 0.25 0.27 0.29 0.31 0.32 0.34 0.36 0.38 0.39 0.40 0.41 0.41 0.41 0.43 0.40 0.29 0.24 0.24 0.24 0.26 0.30 0.33 0.38 0.44 0.48 0.50 0.55 0.60 0.62 0.62 0.61 0.58 0.57 0.59 0.63 0.69 0.71 0.71 0.72 0.75 0.78 0.77 0.76 0.75 0.75 0.74 0.73 0.72 0.69 0.67 0.65
0.20 0.22 0.12 0.18 0.26 0.25 0.17 0.21 0.16 0.17 0.16 0.18 0.19 0.18 0.20 0.20 0.24 0.21 0.20 0.16 0.13 0.10 0.10 0.09 0.08 0.09 0.13 0.20 0.21 0.19 0.20 0.21 0.23 0.23 0.25 0.27 0.29 0.31 0.32 0.33 0.36 0.38 0.40 0.42 0.43 0.43 0.43 0.42 0.44 0.46 0.38 0.28 0.26 0.25 0.26 0.29 0.31 0.36 0.42 0.48 0.51 0.55 0.58 0.60 0.61 0.60 0.58 0.57 0.58 0.61 0.63 0.66 0.68 0.70 0.74 0.75 0.74 0.72 0.71 0.71 0.70 0.69 0.67 0.65 0.62 0.60
0.20 0.20 0.14 0.16 0.16 0.16 0.17 0.24 0.23 0.21 0.21 0.19 0.18 0.16 0.17 0.16 0.15 0.12 0.10 0.19 0.16 0.13 0.10 0.10 0.08 0.11 0.16 0.19 0.20 0.21 0.21 0.22 0.23 0.25 0.26 0.27 0.28 0.29 0.31 0.32 0.35 0.37 0.40 0.42 0.44 0.45 0.44 0.44 0.44 0.47 0.44 0.32 0.27 0.25 0.24 0.28 0.31 0.34 0.39 0.47 0.52 0.57 0.60 0.59 0.58 0.58 0.57 0.57 0.59 0.59 0.59 0.61 0.63 0.66 0.68 0.69 0.69 0.69 0.68 0.68 0.66 0.65 0.61 0.59 0.57 0.55
0.25 0.23 0.19 0.14 0.15 0.15 0.19 0.24 0.27 0.26 0.26 0.24 0.21 0.17 0.20 0.19 0.18 0.14 0.08 0.12 0.16 0.15 0.16 0.15 0.12 0.09 0.12 0.17 0.19 0.21 0.21 0.22 0.25 0.25 0.24 0.26 0.27 0.28 0.30 0.32 0.35 0.39 0.40 0.41 0.43 0.44 0.45 0.45 0.46 0.47 0.44 0.32 0.25 0.24 0.24 0.27 0.31 0.33 0.37 0.45 0.51 0.55 0.58 0.59 0.58 0.58 0.58 0.57 0.57 0.58 0.62 0.63 0.63 0.65 0.65 0.66 0.66 0.66 0.65 0.64 0.62 0.60 0.56 0.53 0.52 0.53
0.31 0.22 0.17 0.17 0.20 0.20 0.22 0.25 0.25 0.26 0.26 0.23 0.23 0.23 0.20 0.16 0.16 0.15 0.14 0.16 0.14 0.14 0.12 0.13 0.10 0.08 0.10 0.15 0.19 0.21 0.24 0.25 0.25 0.24 0.24 0.27 0.29 0.28 0.28 0.31 0.35 0.37 0.39 0.39 0.40 0.43 0.44 0.46 0.47 0.47 0.42 0.33 0.27 0.24 0.24 0.27 0.31 0.33 0.37 0.43 0.49 0.52 0.56 0.58 0.58 0.57 0.56 0.56 0.56 0.59 0.61 0.62 0.64 0.65 0.65 0.65 0.65 0.63 0.61 0.59 0.57 0.55 0.52 0.50 0.51 0.54
0.21 0.23 0.19 0.14 0.12 0.11 0.15 0.18 0.22 0.27 0.26 0.22 0.19 0.21 0.21 0.20 0.20 0.19 0.20 0.20 0.13 0.11 0.13 0.11 0.07 0.07 0.09 0.16 0.19 0.22 0.23 0.22 0.22 0.24 0.27 0.27 0.27 0.27 0.29 0.32 0.36 0.39 0.38 0.37 0.36 0.39 0.43 0.45 0.45 0.44 0.39 0.31 0.26 0.24 0.24 0.27 0.31 0.33 0.36 0.42 0.47 0.52 0.56 0.57 0.58 0.57 0.58 0.58 0.58 0.58 0.60 0.62 0.65 0.65 0.66 0.64 0.62 0.60 0.58 0.55 0.53 0.51 0.50 0.50 0.53 0.57
0.22 0.21 0.19 0.13 0.11 0.09 0.08 0.08 0.09 0.11 0.15 0.20 0.21 0.20 0.21 0.19 0.18 0.17 0.13 0.14 0.10 0.11 0.13 0.11 0.08 0.09 0.10 0.13 0.14 0.17 0.19 0.20 0.23 0.24 0.25 0.27 0.27 0.27 0.29 0.32 0.35 0.40 0.37 0.36 0.35 0.34 0.37 0.41 0.41 0.40 0.35 0.30 0.26 0.24 0.24 0.28 0.32 0.34 0.36 0.40 0.47 0.52 0.55 0.56 0.58 0.59 0.59 0.59 0.58 0.58 0.59 0.63 0.64 0.64 0.64 0.61 0.58 0.56 0.54 0.52 0.50 0.51 0.50 0.50 0.54 0.59
0.24 0.25 0.22 0.17 0.14 0.12 0.12 0.12 0.18 0.20 0.19 0.15 0.17 0.20 0.19 0.20 0.20 0.19 0.18 0.14 0.09 0.10 0.10 0.09 0.10 0.09 0.10 0.10 0.11 0.14 0.17 0.17 0.17 0.19 0.21 0.23 0.26 0.28 0.30 0.32 0.34 0.39 0.39 0.36 0.35 0.33 0.33 0.34 0.34 0.33 0.30 0.28 0.25 0.24 0.25 0.30 0.33 0.34 0.36 0.39 0.46 0.53 0.56 0.57 0.58 0.58 0.57 0.57 0.56 0.56 0.59 0.62 0.61 0.61 0.60 0.58 0.55 0.53 0.52 0.51 0.50 0.50 0.52 0.55 0.59 0.63
0.27 0.22 0.22 0.21 0.19 0.18 0.17 0.17 0.18 0.20 0.17 0.17 0.17 0.16 0.19 0.20 0.20 0.18 0.14 0.10 0.16 0.13 0.08 0.08 0.12 0.12 0.10 0.10 0.11 0.12 0.14 0.16 0.16 0.18 0.20 0.23 0.26 0.28 0.30 0.31 0.34 0.37 0.40 0.38 0.36 0.34 0.32 0.31 0.30 0.29 0.27 0.26 0.25 0.25 0.27 0.32 0.34 0.34 0.36 0.38 0.46 0.52 0.55 0.57 0.57 0.57 0.56 0.56 0.56 0.58 0.59 0.59 0.58 0.59 0.58 0.55 0.52 0.52 0.51 0.51 0.51 0.53 0.55 0.58 0.62 0.64
0.26 0.22 0.23 0.23 0.22 0.22 0.22 0.21 0.22 0.21 0.20 0.19 0.18 0.17 0.17 0.18 0.19 0.16 0.15 0.16 0.17 0.12 0.08 0.08 0.12 0.10 0.10 0.11 0.11 0.11 0.13 0.16 0.18 0.19 0.21 0.23 0.25 0.28 0.29 0.29 0.32 0.34 0.38 0.39 0.38 0.36 0.33 0.31 0.29 0.28 0.27 0.26 0.25 0.25 0.29 0.32 0.33 0.35 0.37 0.40 0.47 0.53 0.55 0.57 0.57 0.56 0.56 0.56 0.57 0.58 0.58 0.57 0.59 0.59 0.56 0.54 0.52 0.52 0.52 0.53 0.54 0.55 0.57 0.60 0.63 0.64
0.28 0.24 0.24 0.24 0.22 0.23 0.22 0.22 0.23 0.22 0.21 0.20 0.19 0.18 0.19 0.19 0.18 0.18 0.16 0.17 0.18 0.14 0.13 0.12 0.12 0.11 0.12 0.12 0.12 0.12 0.14 0.18 0.19 0.20 0.21 0.22 0.23 0.27 0.28 0.28 0.31 0.33 0.34 0.36 0.37 0.36 0.34 0.33 0.31 0.28 0.26 0.24 0.24 0.27 0.30 0.31 0.32 0.34 0.35 0.39 0.45 0.50 0.53 0.55 0.55 0.55 0.55 0.55 0.56 0.57 0.56 0.58 0.59 0.57 0.55 0.53 0.53 0.53 0.53 0.54 0.54 0.55 0.58 0.60 0.62 0.63
0.27 0.22 0.28 0.26 0.24 0.23 0.23 0.23 0.23 0.22 0.22 0.20 0.19 0.19 0.19 0.18 0.17 0.16 0.16 0.16 0.17 0.16 0.15 0.14 0.13 0.11 0.12 0.13 0.13 0.14 0.16 0.18 0.19 0.17 0.18 0.20 0.22 0.24 0.25 0.27 0.31 0.32 0.33 0.34 0.35 0.34 0.32 0.30 0.30 0.28 0.26 0.26 0.28 0.30 0.32 0.32 0.33 0.34 0.35 0.39 0.45 0.49 0.53 0.54 0.55 0.55 0.55 0.55 0.56 0.56 0.58 0.60 0.58 0.55 0.53 0.53 0.54 0.54 0.54 0.54 0.55 0.57 0.59 0.61 0.61 0.61
0.30 0.25 0.26 0.24 0.21 0.21 0.22 0.22 0.22 0.22 0.21 0.20 0.19 0.19 0.17 0.16 0.14 0.13 0.14 0.15 0.15 0.12 0.12 0.13 0.12 0.10 0.10 0.11 0.13 0.13 0.13 0.14 0.14 0.16 0.16 0.18 0.21 0.23 0.25 0.28 0.31 0.32 0.31 0.32 0.33 0.32 0.29 0.29 0.29 0.29 0.30 0.31 0.32 0.32 0.32 0.32 0.33 0.33 0.34 0.39 0.44 0.49 0.54 0.55 0.56 0.56 0.56 0.56 0.57 0.57 0.58 0.58 0.57 0.55 0.54 0.53 0.55 0.55 0.55 0.54 0.56 0.58 0.60 0.60 0.60 0.60
0.31 0.27 0.24 0.23 0.20 0.20 0.23 0.23 0.22 0.22 0.21 0.19 0.19 0.19 0.16 0.15 0.15 0.16 0.17 0.16 0.16 0.14 0.13 0.11 0.09 0.10 0.10 0.11 0.10 0.10 0.10 0.11 0.12 0.14 0.16 0.19 0.21 0.23 0.23 0.26 0.30 0.33 0.32 0.31 0.32 0.33 0.32 0.32 0.33 0.33 0.34 0.34 0.33 0.33 0.33 0.34 0.33 0.33 0.35 0.39 0.45 0.51 0.53 0.55 0.55 0.56 0.57 0.58 0.58 0.58 0.57 0.56 0.55 0.55 0.54 0.55 0.56 0.55 0.54 0.55 0.57 0.59 0.61 0.61 0.61 0.59
0.35 0.32 0.28 0.27 0.21 0.22 0.24 0.24 0.24 0.21 0.17 0.18 0.23 0.21 0.18 0.17 0.19 0.18 0.16 0.15 0.16 0.16 0.13 0.13 0.13 0.12 0.12 0.11 0.09 0.09 0.09 0.10 0.12 0.14 0.18 0.20 0.20 0.22 0.23 0.25 0.29 0.33 0.33 0.32 0.33 0.33 0.35 0.35 0.36 0.36 0.35 0.35 0.35 0.35 0.35 0.35 0.34 0.35 0.38 0.42 0.47 0.49 0.52 0.54 0.56 0.58 0.59 0.60 0.59 0.58 0.56 0.54 0.55 0.54 0.54 0.56 0.56 0.56 0.56 0.56 0.58 0.60 0.60 0.60 0.59 0.58
0.34 0.34 0.31 0.30 0.26 0.24 0.25 0.24 0.21 0.18 0.18 0.23 0.23 0.24 0.24 0.24 0.23 0.20 0.18 0.16 0.16 0.16 0.15 0.14 0.14 0.14 0.13 0.12 0.11 0.11 0.12 0.12 0.13 0.14 0.16 0.20 0.21 0.23 0.24 0.24 0.27 0.30 0.32 0.32 0.32 0.32 0.34 0.34 0.35 0.36 0.36 0.35 0.35 0.35 0.34 0.33 0.34 0.35 0.36 0.40 0.43 0.46 0.49 0.53 0.56 0.58 0.59 0.59 0.59 0.57 0.55 0.55 0.56 0.56 0.57 0.58 0.58 0.57 0.57 0.59 0.60 0.59 0.59 0.59 0.58 0.58
0.33 0.33 0.32 0.30 0.29 0.28 0.25 0.23 0.18 0.18 0.24 0.25 0.27 0.28 0.28 0.25 0.22 0.20 0.18 0.17 0.17 0.16 0.15 0.14 0.14 0.15 0.15 0.13 0.12 0.13 0.14 0.14 0.16 0.16 0.15 0.17 0.20 0.24 0.25 0.23 0.27 0.29 0.30 0.33 0.32 0.32 0.33 0.33 0.33 0.33 0.34 0.36 0.35 0.35 0.34 0.33 0.34 0.34 0.36 0.40 0.44 0.47 0.51 0.55 0.57 0.58 0.59 0.58 0.58 0.57 0.57 0.57 0.57 0.59 0.60 0.59 0.58 0.57 0.58 0.59 0.58 0.57 0.57 0.57 0.58 0.58
0.35 0.33 0.32 0.28 0.29 0.24 0.24 0.23 0.22 0.26 0.25 0.27 0.26 0.24 0.25 0.22 0.21 0.20 0.17 0.18 0.19 0.19 0.18 0.16 0.16 0.15 0.15 0.15 0.14 0.15 0.16 0.17 0.14 0.11 0.12 0.14 0.17 0.21 0.26 0.26 0.26 0.28 0.32 0.33 0.36 0.33 0.32 0.34 0.34 0.34 0.34 0.33 0.34 0.33 0.33 0.34 0.35 0.37 0.40 0.43 0.46 0.49 0.52 0.54 0.55 0.57 0.58 0.59 0.61 0.60 0.60 0.60 0.61 0.61 0.60 0.59 0.58 0.58 0.59 0.58 0.57 0.57 0.58 0.57 0.57 0.56
0.36 0.31 0.32 0.28 0.26 0.28 0.24 0.22 0.23 0.23 0.21 0.25 0.26 0.28 0.30 0.28 0.26 0.26 0.25 0.24 0.25 0.22 0.20 0.18 0.16 0.16 0.15 0.15 0.17 0.19 0.21 0.17 0.11 0.09 0.11 0.12 0.14 0.17 0.22 0.27 0.28 0.28 0.30 0.34 0.36 0.38 0.36 0.33 0.34 0.33 0.33 0.32 0.32 0.34 0.35 0.36 0.38 0.40 0.42 0.44 0.47 0.49 0.52 0.54 0.57 0.60 0.60 0.61 0.61 0.61 0.61 0.61 0.60 0.59 0.58 0.59 0.59 0.60 0.61 0.61 0.60 0.60 0.59 0.56 0.55 0.55
0.36 0.35 0.32 0.29 0.27 0.27 0.26 0.23 0.22 0.21 0.24 0.29 0.28 0.29 0.30 0.30 0.30 0.31 0.29 0.24 0.24 0.21 0.19 0.18 0.17 0.16 0.16 0.17 0.18 0.23 0.20 0.18 0.15 0.13 0.14 0.13 0.13 0.14 0.17 0.21 0.25 0.27 0.28 0.29 0.33 0.36 0.38 0.37 0.34 0.33 0.33 0.32 0.32 0.34 0.37 0.40 0.43 0.44 0.46 0.50 0.53 0.55 0.56 0.57 0.59 0.59 0.58 0.58 0.58 0.58 0.58 0.58 0.59 0.60 0.62 0.63 0.64 0.65 0.64 0.62 0.60 0.59 0.55 0.53 0.53 0.53
0.32 0.32 0.31 0.28 0.26 0.27 0.26 0.23 0.22 0.26 0.27 0.29 0.30 0.31 0.32 0.33 0.34 0.32 0.24 0.23 0.26 0.23 0.20 0.19 0.18 0.18 0.19 0.20 0.21 0.23 0.23 0.21 0.20 0.17 0.17 0.16 0.15 0.15 0.14 0.17 0.20 0.23 0.25 0.27 0.29 0.33 0.38 0.40 0.38 0.35 0.34 0.33 0.33 0.35 0.37 0.40 0.42 0.46 0.51 0.52 0.48 0.45 0.46 0.51 0.55 0.57 0.57 0.58 0.58 0.59 0.61 0.62 0.63 0.65 0.66 0.66 0.66 0.64 0.61 0.59 0.56 0.53 0.52 0.53 0.53 0.53
0.30 0.30 0.29 0.26 0.27 0.27 0.25 0.24 0.25 0.26 0.32 0.36 0.36 0.35 0.34 0.34 0.33 0.27 0.23 0.27 0.26 0.23 0.22 0.21 0.21 0.21 0.21 0.23 0.27 0.27 0.29 0.29 0.27 0.23 0.20 0.20 0.18 0.17 0.17 0.18 0.19 0.21 0.21 0.24 0.26 0.28 0.30 0.36 0.40 0.39 0.36 0.36 0.38 0.40 0.42 0.43 0.44 0.47 0.49 0.48 0.45 0.43 0.44 0.46 0.50 0.53 0.55 0.56 0.57 0.58 0.59 0.61 0.62 0.63 0.63 0.62 0.61 0.60 0.58 0.56 0.54 0.54 0.53 0.54 0.53 0.51
0.29 0.30 0.29 0.29 0.26 0.26 0.26 0.24 0.23 0.26 0.32 0.37 0.37 0.36 0.36 0.32 0.26 0.24 0.27 0.28 0.26 0.24 0.25 0.25 0.25 0.26 0.29 0.32 0.33 0.32 0.33 0.34 0.31 0.26 0.22 0.21 0.21 0.20 0.19 0.19 0.19 0.21 0.22 0.23 0.24 0.25 0.25 0.27 0.32 0.37 0.40 0.41 0.38 0.38 0.40 0.43 0.44 0.46 0.47 0.46 0.43 0.42 0.43 0.45 0.48 0.52 0.56 0.58 0.58 0.58 0.59 0.61 0.62 0.61 0.60 0.60 0.59 0.58 0.57 0.57 0.56 0.56 0.55 0.53 0.51 0.50
0.29 0.28 0.25 0.26 0.28 0.28 0.26 0.24 0.23 0.21 0.33 0.37 0.38 0.36 0.35 0.29 0.29 0.30 0.30 0.29 0.28 0.27 0.27 0.28 0.28 0.30 0.33 0.34 0.36 0.38 0.38 0.36 0.32 0.26 0.23 0.22 0.22 0.21 0.21 0.21 0.20 0.20 0.21 0.21 0.22 0.24 0.24 0.23 0.24 0.26 0.32 0.37 0.41 0.41 0.39 0.36 0.34 0.35 0.36 0.34 0.35 0.39 0.42 0.45 0.47 0.49 0.51 0.54 0.55 0.56 0.57 0.58 0.59 0.59 0.59 0.58 0.58 0.57 0.56 0.56 0.55 0.54 0.53 0.51 0.50 0.49
0.33 0.28 0.26 0.28 0.31 0.26 0.24 0.22 0.22 0.31 0.37 0.39 0.36 0.30 0.31 0.32 0.33 0.32 0.32 0.30 0.30 0.30 0.30 0.31 0.32 0.33 0.34 0.35 0.36 0.39 0.40 0.38 0.34 0.29 0.25 0.24 0.23 0.23 0.24 0.24 0.24 0.23 0.23 0.24 0.24 0.24 0.24 0.24 0.24 0.24 0.25 0.28 0.31 0.35 0.39 0.41 0.39 0.38 0.36 0.36 0.41 0.42 0.42 0.44 0.45 0.46 0.47 0.48 0.49 0.51 0.53 0.54 0.55 0.56 0.56 0.56 0.55 0.55 0.54 0.54 0.53 0.52 0.51 0.50 0.48 0.46
0.32 0.31 0.32 0.29 0.32 0.29 0.25 0.28 0.34 0.38 0.38 0.40 0.39 0.39 0.39 0.38 0.39 0.38 0.38 0.35 0.33 0.33 0.33 0.33 0.33 0.34 0.35 0.37 0.38 0.39 0.40 0.40 0.37 0.33 0.28 0.27 0.27 0.26 0.25 0.26 0.26 0.26 0.25 0.24 0.25 0.26 0.25 0.24 0.23 0.24 0.25 0.26 0.26 0.27 0.29 0.31 0.33 0.37 0.39 0.43 0.44 0.42 0.42 0.42 0.42 0.42 0.43 0.44 0.46 0.47 0.49 0.51 0.52 0.53 0.54 0.55 0.54 0.53 0.52 0.51 0.50 0.48 0.47 0.46 0.44 0.43
0.37 0.37 0.38 0.35 0.32 0.35 0.35 0.35 0.37 0.38 0.38 0.39 0.41 0.42 0.41 0.41 0.42 0.42 0.41 0.40 0.41 0.40 0.38 0.36 0.36 0.37 0.38 0.39 0.39 0.39 0.39 0.39 0.38 0.36 0.33 0.30 0.29 0.30 0.30 0.30 0.29 0.28 0.28 0.28 0.28 0.28 0.27 0.27 0.26 0.25 0.24 0.25 0.25 0.26 0.26 0.26 0.26 0.25 0.25 0.33 0.37 0.41 0.43 0.43 0.42 0.42 0.43 0.44 0.45 0.46 0.47 0.47 0.48 0.49 0.50 0.51 0.51 0.50 0.49 0.48 0.47 0.45 0.44 0.43 0.42 0.42
0.36 0.37 0.35 0.32 0.32 0.31 0.24 0.33 0.35 0.36 0.39 0.39 0.40 0.42 0.42 0.43 0.43 0.43 0.42 0.42 0.42 0.41 0.39 0.38 0.38 0.39 0.40 0.41 0.39 0.38 0.37 0.38 0.39 0.40 0.39 0.37 0.33 0.32 0.33 0.34 0.34 0.32 0.30 0.29 0.30 0.31 0.30 0.29 0.28 0.26 0.26 0.25 0.26 0.26 0.25 0.24 0.24 0.24 0.24 0.24 0.26 0.28 0.30 0.32 0.35 0.37 0.38 0.39 0.40 0.40 0.41 0.40 0.40 0.41 0.41 0.41 0.41 0.41 0.41 0.41 0.41 0.41 0.41 0.41 0.41 0.42
0.31 0.38 0.33 0.32 0.32 0.29 0.28 0.34 0.36 0.38 0.39 0.40 0.40 0.40 0.40 0.42 0.42 0.43 0.42 0.42 0.43 0.43 0.41 0.41 0.41 0.40 0.41 0.39 0.39 0.38 0.37 0.38 0.39 0.41 0.43 0.43 0.41 0.40 0.40 0.40 0.39 0.37 0.35 0.34 0.32 0.32 0.32 0.32 0.31 0.29 0.28 0.27 0.28 0.28 0.27 0.26 0.26 0.26 0.25 0.24 0.23 0.23 0.23 0.22 0.23 0.23 0.25 0.27 0.29 0.30 0.31 0.31 0.32 0.32 0.33 0.34 0.34 0.35 0.36 0.37 0.38 0.38 0.38 0.39 0.39 0.40
0.36 0.37 0.29 0.32 0.30 0.31 0.34 0.35 0.37 0.38 0.37 0.37 0.40 0.41 0.41 0.41 0.42 0.43 0.43 0.44 0.44 0.43 0.44 0.44 0.44 0.42 0.41 0.40 0.40 0.40 0.40 0.41 0.42 0.42 0.43 0.44 0.44 0.43 0.44 0.45 0.44 0.42 0.39 0.38 0.37 0.36 0.33 0.33 0.33 0.33 0.32 0.32 0.32 0.31 0.30 0.30 0.30 0.30 0.29 0.28 0.27 0.25 0.23 0.22 0.22 0.22 0.22 0.23 0.24 0.25 0.26 0.28 0.29 0.30 0.30 0.31 0.32 0.33 0.34 0.34 0.35 0.35 0.36 0.38 0.38 0.38
0.35 0.30 0.33 0.33 0.28 0.28 0.29 0.32 0.37 0.31 0.30 0.37 0.40 0.41 0.42 0.43 0.42 0.42 0.43 0.43 0.44 0.44 0.44 0.43 0.42 0.43 0.42 0.41 0.41 0.42 0.42 0.43 0.44 0.45 0.45 0.45 0.45 0.44 0.44 0.45 0.46 0.46 0.44 0.41 0.39 0.39 0.39 0.39 0.38 0.36 0.34 0.34 0.35 0.35 0.35 0.34 0.34 0.35 0.35 0.35 0.34 0.32 0.30 0.29 0.28 0.27 0.27 0.27 0.27 0.27 0.27 0.28 0.29 0.30 0.30 0.30 0.31 0.31 0.32 0.34 0.35 0.35 0.35 0.36 0.37 0.37
0.33 0.33 0.34 0.30 0.30 0.28 0.34 0.38 0.39 0.38 0.36 0.38 0.41 0.43 0.43 0.44 0.43 0.42 0.43 0.43 0.44 0.45 0.45 0.44 0.43 0.44 0.43 0.43 0.44 0.43 0.44 0.45 0.46 0.46 0.46 0.46 0.47 0.47 0.47 0.46 0.46 0.46 0.46 0.44 0.42 0.42 0.43 0.43 0.43 0.42 0.40 0.39 0.38 0.36 0.36 0.36 0.37 0.37 0.38 0.38 0.38 0.38 0.36 0.35 0.34 0.33 0.33 0.33 0.32 0.32 0.32 0.32 0.31 0.32 0.32 0.33 0.33 0.33 0.33 0.33 0.34 0.35 0.35 0.35 0.35 0.35
Wind_Speed
23 23 22 20 19 17 15 11 9 8 7 8 9 10 13 15 18 20 22 23 23 25 28 29 31 34 36 37 38 38 38 39 41 42 43 44 44 44 44 45 45 44 43 42 41 38 37 37 37 37 37 35 35 36 36 36 37 37 38 37 36 37 37 37 38 37 37 36 35 35 34 33 32 31 30 29 28 27 26 26 25 25 25 24 24 23
23 22 21 20 18 17 15 13 11 9 8 8 8 10 12 14 17 19 20 22 22 24 27 28 30 35 36 36 38 39 39 40 41 42 44 45 45 46 45 46 46 45 44 44 44 42 39 38 36 37 38 36 35 35 35 35 36 36 37 38 37 37 37 38 37 37 37 36 35 35 34 34 33 32 31 31 30 29 28 27 26 25 25 25 25 24
22 21 20 20 19 18 16 15 13 11 10 9 9 10 11 12 15 17 18 19 21 23 26 27 30 35 36 37 38 39 40 41 42 43 44 45 46 47 47 47 46 46 46 46 46 45 43 41 38 36 38 38 36 35 35 35 35 35 36 37 38 38 37 38 37 37 37 37 35 34 33 33 33 33 32 31 30 29 29 28 27 26 26 25 25 25
20 19 19 20 19 18 17 16 15 14 12 10 10 10 11 12 12 14 16 18 20 23 26 27 30 34 35 35 37 39 40 42 43 44 44 45 46 47 47 47 47 47 48 48 48 47 46 45 42 39 38 39 38 38 37 36 36 36 36 36 37 39 38 37 37 37 37 37 35 34 32 32 32 32 32 31 30 30 29 28 27 27 26 26 26 26
18 18 19 20 19 18 18 17 16 14 13 12 10 10 10 11 11 13 15 17 19 20 23 25 29 32 32 32 35 36 37 40 42 42 44 45 46 47 47 48 49 49 49 49 49 49 48 48 47 44 41 39 39 40 40 38 37 37 37 35 34 37 38 37 37 37 37 37 36 35 34 32 31 32 32 31 31 30 29 29 28 27 27 26 26 26
17 17 18 19 19 19 18 17 15 13 13 13 11 10 9 10 10 12 14 15 16 18 19 20 23 29 30 31 35 35 36 39 40 40 44 46 46 47 48 50 50 50 50 50 50 50 50 50 50 48 45 42 41 41 41 40 39 39 38 37 35 34 35 35 36 37 38 37 36 36 35 34 33 33 32 31 30 30 29 29 28 28 27 27 26 26
16 17 17 17 18 19 18 17 16 14 13 13 12 10 10 10 10 11 12 13 13 15 18 18 21 27 30 33 35 35 36 39 40 40 44 46 46 47 49 50 50 51 51 51 51 51 51 51 52 51 50 47 44 42 42 41 41 41 40 40 39 36 34 34 35 36 38 38 37 36 36 35 35 34 33 32 31 30 29 29 28 28 27 26 26 26
15 16 17 17 17 18 18 17 16 14 14 14 13 11 11 11 11 12 11 11 11 14 16 15 17 22 27 31 32 32 34 38 40 41 43 45 48 49 50 51 51 51 52 51 52 52 52 53 53 53 53 51 48 45 44 43 42 42 42 42 42 40 37 35 35 35 35 37 39 38 36 35 35 35 34 32 32 31 30 29 29 28 27 26 26 26
15 15 15 15 16 16 16 15 15 14 14 14 13 13 13 12 12 12 11 12 12 14 13 11 10 13 19 22 22 23 30 35 38 41 42 44 47 49 50 52 52 52 52 52 53 53 53 54 54 54 54 54 52 49 47 46 45 44 44 43 43 43 40 38 38 36 33 34 37 38 37 36 35 34 34 33 32 32 31 29 28 28 27 26 26 25
14 14 14 14 14 15 14 15 14 14 14 14 13 14 14 14 13 13 12 12 12 12 11 9 9 9 13 16 13 12 19 25 30 34 37 41 44 47 50 52 53 54 53 54 54 54 54 55 55 55 55 55 55 53 51 49 47 46 46 45 44 44 43 40 40 39 36 34 34 34 34 35 36 34 33 32 31 31 30 29 28 28 26 25 25 25
15 15 14 13 13 13 14 14 14 14 15 15 15 15 15 15 14 14 12 11 11 11 10 9 9 8 11 14 11 9 12 15 21 26 31 35 40 44 47 50 52 54 54 55 56 56 56 56 56 56 56 57 56 56 55 53 50 49 47 46 46 45 44 42 41 41 40 37 35 35 34 35 36 34 33 31 30 31 30 29 29 28 27 26 25 25
15 14 13 14 13 12 13 14 14 14 15 15 15 15 16 15 14 13 13 11 9 10 11 10 9 8 9 13 13 12 13 13 15 19 24 30 35 41 45 48 50 52 54 55 57 57 57 57 58 58 58 58 58 58 58 57 55 52 50 49 48 47 46 45 44 43 42 40 38 37 36 37 36 34 34 32 30 30 30 29 29 29 28 27 26 25
15 13 13 14 13 12 12 14 14 15 15 15 15 15 15 15 14 13 13 12 10 10 11 11 11 10 13 16 16 16 17 16 15 16 19 23 29 35 40 44 47 50 52 54 56 58 58 59 59 60 60 60 60 60 59 59 57 55 53 51 50 49 48 46 46 45 44 43 40 38 37 37 36 35 34 34 32 31 30 30 30 29 29 29 28 27
14 14 13 13 13 12 11 12 13 14 14 14 14 14 13 13 14 14 13 13 13 12 13 12 11 12 15 17 16 17 17 16 15 15 17 20 23 28 32 36 40 45 49 52 55 58 59 60 61 62 62 62 61 61 61 60 59 57 55 53 51 50 49 48 46 46 45 44 42 41 38 37 37 36 35 35 33 31 30 31 31 30 30 29 29 29
12 13 12 11 12 11 11 12 11 12 13 13 12 12 12 11 11 12 12 12 14 15 14 12 11 10 13 16 15 14 13 13 13 14 15 17 20 23 25 29 33 37 42 47 51 55 59 61 62 63 64 63 63 62 62 61 60 59 57 55 53 51 50 48 47 46 46 45 43 42 41 39 38 37 36 35 34 33 32 31 31 31 30 30 30 30
11 13 12 12 12 11 12 12 11 12 13 13 12 12 12 12 11 12 12 12 14 16 14 11 11 12 16 19 17 13 13 13 14 15 15 17 20 22 23 26 29 32 36 40 45 50 56 60 62 64 65 65 64 63 63 62 61 60 58 57 55 53 51 49 48 46 46 45 44 43 42 41 39 38 37 36 35 35 34 33 33 32 31 31 30 30
11 13 13 13 13 12 12 12 12 12 12 12 12 12 12 12 12 13 14 14 14 14 13 12 14 17 19 18 14 12 13 12 12 14 15 18 21 22 24 27 29 31 33 36 40 44 50 57 62 64 65 66 65 64 64 63 62 61 59 57 56 54 52 50 49 47 46 45 44 43 42 41 40 39 38 37 36 36 35 34 33 32 32 31 31 31
11 13 14 13 13 13 12 11 13 12 11 11 12 12 12 12 13 13 14 15 14 14 14 12 15 19 17 14 14 14 14 13 13 15 17 19 21 22 24 27 29 32 34 36 38 40 44 50 58 64 66 66 66 66 65 63 62 60 59 58 56 55 53 52 50 48 47 46 44 43 42 41 40 39 38 37 37 36 35 34 34 33 32 32 32 31
12 13 14 12 12 12 12 11 13 13 11 11 12 12 12 12 13 13 13 14 14 16 16 14 16 18 14 13 16 15 14 15 16 17 19 20 21 23 25 27 30 33 35 37 38 39 41 45 52 60 65 67 66 65 65 63 61 60 59 58 56 55 53 51 50 48 46 45 44 43 41 40 39 39 38 37 36 36 35 34 33 33 33 32 32 31
12 12 13 12 11 12 12 11 12 12 12 11 12 12 12 12 12 12 12 13 14 16 17 18 18 17 15 14 16 16 16 17 18 19 19 20 22 23 26 28 30 32 35 36 37 38 39 42 47 54 61 65 66 65 64 63 62 60 59 57 56 55 53 52 50 48 46 45 43 42 41 40 39 38 37 36 36 35 34 34 33 32 32 31 31 30
12 11 12 13 12 11 11 11 11 11 11 11 11 12 12 12 12 13 13 13 13 15 17 18 19 19 18 15 14 16 18 18 19 20 20 21 23 25 26 28 30 31 33 34 36 36 37 38 42 48 54 60 64 64 63 62 61 60 59 57 56 55 53 52 50 48 46 44 43 42 41 40 39 38 37 36 35 35 34 33 32 32 31 31 30 30
12 12 12 13 13 13 13 13 12 11 10 10 11 11 11 11 11 13 13 12 12 13 15 17 19 21 18 13 13 16 18 19 20 20 21 23 24 26 27 27 29 30 30 30 32 33 33 34 37 42 47 53 59 62 63 62 61 60 59 57 56 54 53 51 49 47 46 44 43 42 41 40 39 37 36 36 35 34 33 33 32 32 31 30 30 30
12 12 13 15 15 15 15 14 13 12 11 12 12 12 11 11 11 12 13 13 13 13 15 16 17 18 17 14 15 18 18 21 21 21 22 24 25 27 27 27 28 27 26 25 25 26 28 30 32 37 42 47 54 59 61 61 60 59 58 57 55 54 52 50 48 47 45 44 43 42 40 39 38 37 37 36 35 34 33 33 32 32 31 30 30 30
12 12 13 15 16 16 16 14 12 11 11 12 13 12 12 12 12 13 13 14 15 14 14 14 15 17 19 18 18 19 21 23 23 23 23 24 25 27 27 28 27 24 22 20 20 21 23 26 28 33 37 41 47 54 58 58 58 58 57 56 55 53 51 50 48 46 45 44 43 41 40 39 38 37 37 36 35 34 33 33 32 31 30 30 30 29
12 13 12 13 15 15 14 12 11 11 11 12 13 12 12 13 13 14 14 15 16 15 13 13 15 19 20 21 21 22 24 25 25 24 23 23 25 26 27 27 25 21 19 17 16 18 21 24 26 30 34 38 42 49 54 55 56 56 56 55 54 52 50 49 47 46 45 43 42 41 40 39 38 37 36 35 34 34 33 32 31 31 30 30 29 29
13 14 13 12 12 13 13 12 12 13 12 13 14 14 14 14 13 14 14 13 15 14 12 12 16 20 23 24 25 25 25 25 24 23 23 23 24 26 26 26 24 20 16 14 13 14 18 21 24 28 32 35 39 45 50 52 53 53 53 53 53 51 49 48 46 45 44 42 41 40 39 39 38 37 36 35 34 33 32 32 31 31 30 30 30 29
14 16 16 15 15 15 16 16 15 15 15 16 17 16 16 15 14 14 13 13 15 15 16 18 19 23 27 27 26 25 24 24 24 24 24 24 25 26 26 24 23 19 14 11 10 10 13 17 22 25 29 33 37 41 45 48 50 50 51 52 51 49 48 46 45 44 43 42 41 40 39 38 37 36 36 34 33 33 32 32 31 31 31 30 30 30
15 17 17 18 19 20 20 20 18 18 19 20 20 19 19 17 16 15 15 16 15 15 18 20 17 20 26 27 26 26 25 24 24 24 24 25 25 26 24 22 20 17 13 9 7 7 10 15 19 23 26 31 34 38 42 45 46 47 49 50 49 48 46 45 44 43 42 41 40 39 39 37 36 36 35 34 33 32 32 32 32 31 31 30 30 30
16 18 18 18 21 21 21 21 20 21 21 21 21 22 21 19 18 18 20 20 16 16 20 21 19 21 25 25 25 25 24 24 25 25 25 25 25 24 22 20 18 16 12 8 6 6 9 13 17 20 24 28 32 36 40 42 43 45 46 48 48 46 45 44 43 42 41 40 39 39 38 37 36 35 34 33 33 33 32 32 32 31 30 30 30 29
17 18 17 17 20 21 21 21 21 21 22 22 22 23 22 22 21 21 22 21 19 22 25 25 25 25 24 22 23 24 24 24 24 24 24 23 23 22 20 18 17 15 12 7 4 3 6 11 15 18 22 25 30 34 37 39 40 42 44 46 46 45 43 42 41 41 40 39 38 38 37 36 35 35 34 34 33 33 32 32 31 31 30 30 30 29
17 18 17 17 19 21 20 20 20 19 20 22 24 24 24 23 22 21 22 20 20 23 24 24 24 23 20 19 21 22 22 23 22 21 21 21 21 20 19 17 16 14 11 7 4 1 4 9 13 17 20 24 28 31 34 36 37 40 42 43 44 43 42 41 40 40 39 38 38 37 36 36 35 35 35 34 34 33 32 31 31 31 30 30 30 29
18 19 18 17 19 20 18 18 19 20 21 24 26 25 22 19 17 17 17 16 16 19 20 19 19 19 18 18 18 19 19 19 19 19 19 20 20 19 18 16 15 13 10 7 5 4 6 10 13 17 19 22 25 28 31 33 35 37 39 41 41 41 40 40 39 38 38 37 37 37 37 36 35 35 35 34 34 34 33 32 31 31 30 30 30 30
18 19 19 18 18 18 17 17 19 20 21 22 21 18 14 12 12 14 15 15 15 15 15 15 16 16 16 16 17 18 18 17 18 19 19 19 19 18 17 15 14 12 9 7 6 6 7 9 12 15 17 20 22 25 28 31 33 35 37 39 39 39 39 38 38 37 37 37 37 37 37 36 36 35 35 35 34 34 33 32 32 31 31 31 30 30
19 19 19 19 18 18 18 19 21 20 19 16 13 11 11 12 13 15 17 17 16 15 15 16 16 16 15 15 15 16 17 17 18 19 19 17 17 17 17 15 13 11 9 7 6 6 6 7 9 12 15 17 20 22 25 28 31 33 36 37 38 38 37 37 36 36 36 36 37 37 36 36 36 35 35 34 34 33 33 32 32 32 31 31 31 31
21 20 20 20 19 20 20 19 18 16 15 15 16 16 17 17 16 17 19 17 15 15 16 17 16 15 14 14 14 14 16 18 19 18 17 15 15 15 16 15 12 10 9 7 5 5 5 6 7 10 13 15 18 21 23 26 28 31 33 35 36 36 36 35 35 35 35 36 36 36 36 36 35 34 34 34 33 33 33 33 33 32 32 32 32 32
22 21 21 20 20 20 18 15 15 17 19 21 21 18 15 14 13 14 16 16 13 13 14 15 16 15 13 13 13 14 15 17 17 15 14 14 14 14 14 13 11 9 8 7 5 4 4 5 6 8 11 14 16 19 22 24 27 29 31 32 33 34 34 34 34 34 34 35 36 36 36 36 35 35 35 34 34 34 33 33 33 33 33 32 32 32
22 22 22 22 21 19 18 17 19 22 23 21 17 13 11 11 11 11 14 15 13 12 13 15 15 14 11 11 13 14 14 15 15 13 13 13 13 13 12 11 10 9 7 7 5 4 4 5 6 8 10 12 15 17 20 22 25 27 28 30 31 32 33 33 33 34 34 35 36 36 36 36 36 36 35 35 35 34 34 34 34 34 34 34 33 33
24 23 23 23 21 18 18 19 19 18 17 15 14 14 13 12 12 11 14 16 15 12 11 11 12 11 10 10 12 12 12 13 13 12 12 12 12 11 11 10 9 8 7 6 5 4 4 5 6 8 10 12 14 16 18 21 23 24 26 27 29 31 32 33 33 34 34 35 35 35 35 35 35 35 35 35 35 35 35 35 35 35 34 34 34 34
24 24 23 23 22 19 18 18 17 16 16 15 15 16 15 13 13 13 15 16 14 11 9 8 8 9 9 10 10 9 11 13 13 11 11 11 11 10 10 10 8 8 7 6 4 4 4 5 6 8 9 11 13 16 18 20 21 22 24 25 27 28 29 31 31 32 32 32 33 33 33 34 34 35 35 36 36 36 36 36 35 35 35 34 34 34
23 24 24 25 25 22 21 21 20 20 19 17 17 18 16 15 15 14 14 14 12 10 8 7 8 9 9 10 10 10 11 12 12 11 10 9 9 9 8 8 7 7 6 5 4 3 3 5 6 8 9 11 13 15 17 18 20 21 22 23 24 25 26 27 28 29 30 30 31 32 33 34 35 35 35 36 36 36 36 36 35 35 35 34 34 35
24 25 26 26 27 25 24 24 23 23 22 21 23 23 19 17 16 14 14 13 12 10 9 9 10 11 10 10 10 12 13 12 11 11 10 9 9 8 7 7 6 6 5 4 3 2 3 4 5 7 9 11 12 14 15 17 18 19 20 21 22 23 24 25 26 27 28 29 30 31 32 33 34 35 35 35 35 35 35 35 34 35 35 35 35 35
25 25 26 26 26 25 25 24 24 23 21 19 20 19 17 16 16 14 14 13 11 10 10 11 13 13 12 12 13 14 15 14 13 12 10 9 9 8 8 7 6 5 4 3 2 1 1 2 4 6 7 9 12 14 15 17 18 18 19 20 21 22 23 24 25 26 27 28 29 30 31 32 33 33 34 34 34 34 34 35 35 36 36 36 36 36
27 26 26 27 26 24 23 23 22 19 16 13 11 12 13 15 15 14 14 14 13 12 12 13 15 15 15 16 16 17 16 15 14 13 11 10 10 9 8 7 6 6 4 3 2 2 2 2 3 5 6 8 10 12 14 16 18 18 20 21 21 21 22 23 24 25 27 28 28 29 30 31 32 33 33 34 34 34 35 35 35 36 36 35 35 35
30 28 27 27 27 25 25 26 23 20 17 15 14 13 16 18 17 15 14 15 15 14 15 16 17 17 18 19 19 18 17 15 15 14 13 12 11 10 10 9 9 8 7 5 5 4 4 5 5 6 7 8 10 11 13 15 16 17 19 20 20 21 22 23 24 25 26 27 28 28 29 30 31 31 32 33 33 33 33 33 33 34 34 34 34 35
32 31 29 29 30 30 30 30 28 25 24 24 24 22 22 24 24 21 19 20 20 19 19 19 21 21 21 21 20 19 18 17 16 15 14 14 14 13 12 12 11 11 10 9 8 7 7 7 7 7 8 9 11 12 13 14 15 16 17 18 19 20 21 22 22 24 25 25 26 27 27 28 29 29 30 30 31 31 31 32 32 33 33 34 34 35
32 31 30 30 31 33 34 34 31 29 29 29 30 29 28 28 29 28 28 28 27 25 24 23 24 23 22 21 21 21 20 19 18 18 17 17 16 16 15 14 13 13 13 12 11 10 10 9 9 9 10 11 12 13 14 15 16 17 17 17 18 19 20 21 22 23 23 24 25 25 26 27 28 28 29 30 30 31 31 32 32 33 33 34 34 35
31 31 32 31 31 32 33 32 30 31 32 32 32 32 31 31 31 31 32 32 31 29 27 25 25 24 22 22 23 23 23 22 21 21 21 20 19 19 18 17 16 15 15 15 14 13 13 12 12 12 12 13 14 15 15 16 18 18 18 17 18 20 20 21 22 23 23 24 25 25 26 27 27 28 29 29 30 31 31 32 32 33 33 34 35 35
30 30 32 33 33 34 34 31 29 31 32 32 32 32 32 33 34 34 34 34 33 31 29 28 27 26 25 25 25 25 25 25 24 24 24 23 23 22 20 19 18 17 17 17 17 16 15 15 15 15 15 15 15 16 17 18 18 19 18 19 19 20 21 22 23 23 24 24 24 25 26 26 27 27 28 29 30 30 31 32 32 33 34 35 35 36
29 30 31 32 33 35 35 31 29 30 30 30 31 32 31 32 34 34 34 34 34 33 32 30 30 29 27 27 27 26 27 27 27 26 26 25 25 24 22 21 20 19 19 19 19 18 18 18 18 18 18 18 18 18 19 19 20 20 20 20 20 21 21 22 23 23 23 24 24 25 25 26 27 27 28 29 30 31 31 32 33 33 34 35 36 36
32 33 31 31 34 35 32 28 27 29 29 28 29 31 31 31 33 34 34 35 34 34 33 33 32 31 29 29 28 28 28 28 28 27 27 26 25 25 24 23 22 21 21 21 20 20 20 20 21 21 21 20 20 20 21 21 21 21 21 21 21 22 22 23 23 23 24 24 25 25 26 26 27 28 28 29 29 30 31 32 33 34 34 34 35 36
35 35 32 33 35 35 32 28 27 30 30 28 28 30 30 30 32 34 34 35 35 35 34 34 34 33 32 30 29 29 29 29 28 28 28 28 27 26 25 24 23 23 23 22 21 21 21 22 22 22 23 23 22 22 23 23 23 23 23 23 23 23 24 24 24 24 24 25 25 26 26 26 27 27 28 28 28 29 30 30 32 33 34 34 35 36
Wind_Direction
7 9 7 6 4 0 357 353 344 334 322 304 293 282 271 264 258 255 253 253 252 250 248 247 247 246 245 243 242 243 242 239 238 237 237 237 238 239 237 235 234 234 233 231 230 230 231 231 230 230 229 229 230 228 227 226 224 223 223 223 222 223 223 222 223 223 223 223 224 225 226 225 225 226 226 228 230 232 234 235 235 236 238 238 237 236
8 9 5 4 3 1 2 1 354 348 341 325 309 298 286 273 265 261 257 257 256 253 251 251 252 249 247 245 244 243 242 240 238 238 237 237 237 238 238 237 236 235 234 232 231 231 231 231 232 232 230 228 228 227 226 223 222 223 224 225 225 225 224 223 223 222 224 226 226 227 227 226 226 226 227 229 230 232 234 235 236 237 237 238 238 238
6 7 2 1 2 3 5 7 6 0 351 339 326 313 300 287 277 270 263 261 259 256 256 256 255 252 249 247 246 244 242 241 240 239 238 238 237 237 238 238 237 235 234 233 232 232 232 231 232 233 230 227 226 225 224 223 221 223 225 226 226 226 225 224 224 223 224 226 226 226 226 226 227 227 229 230 230 232 234 235 237 238 238 238 238 239
4 3 1 2 3 5 4 5 9 7 360 349 337 324 312 304 294 280 273 271 267 261 259 259 258 255 252 249 247 246 244 244 243 242 241 239 238 238 238 238 237 236 235 234 233 232 232 231 231 233 231 228 227 226 225 224 222 223 224 226 226 225 225 225 225 225 225 225 225 225 224 225 226 227 229 229 230 232 233 235 237 238 238 239 239 239
359 359 3 5 5 5 2 3 8 8 2 354 345 337 325 315 302 287 282 281 277 270 264 265 264 258 254 252 250 248 247 246 245 244 244 241 240 239 239 238 237 237 236 235 234 233 232 231 231 232 231 229 228 227 226 225 223 223 223 224 224 223 224 225 224 224 225 225 225 224 224 225 226 227 229 230 231 231 233 234 236 238 239 240 240 240
356 1 7 6 4 6 4 1 2 4 1 355 351 348 340 329 315 304 299 294 289 280 273 275 271 261 257 256 253 250 249 248 245 243 244 243 241 240 239 239 238 237 237 236 235 234 232 232 231 231 231 230 229 228 227 227 226 225 224 224 223 223 224 225 225 225 225 224 225 225 225 226 227 228 229 231 230 229 231 233 235 237 239 240 241 241
357 2 8 8 6 6 5 0 357 360 1 354 351 352 349 346 336 326 323 316 303 288 281 280 272 266 265 261 255 253 251 250 247 244 244 244 242 241 240 240 239 238 238 237 236 235 233 232 231 231 231 230 230 229 227 227 227 227 227 226 225 225 226 224 224 226 226 226 226 226 226 228 229 229 231 232 231 231 231 232 234 236 237 239 240 241
357 359 3 6 6 5 4 1 358 1 1 352 351 353 348 345 338 333 335 329 319 309 300 288 276 274 272 266 259 256 254 252 250 247 245 244 243 243 242 241 240 239 239 238 237 236 234 233 232 231 231 231 230 229 228 227 227 227 227 227 226 226 227 225 223 225 227 227 227 227 228 229 230 230 231 232 231 231 231 232 235 237 238 240 241 242
353 356 357 360 2 1 359 358 358 2 359 349 347 348 344 342 336 335 334 328 328 328 321 310 301 294 286 279 270 260 256 254 251 248 246 245 244 243 243 242 241 240 239 239 238 237 236 234 233 232 231 231 230 230 229 228 228 228 227 227 226 226 227 227 225 225 226 227 226 227 228 229 229 229 229 230 230 230 230 232 234 236 237 239 240 241
348 351 354 356 355 354 354 356 359 0 355 350 350 349 347 347 343 342 336 329 334 332 323 319 320 317 306 302 297 274 261 256 253 250 247 246 245 244 243 243 242 241 239 239 238 238 237 235 234 233 232 231 230 230 230 229 228 227 227 227 227 227 227 228 227 227 227 226 225 224 225 226 227 227 226 227 228 229 230 231 232 233 235 237 238 241
342 345 348 350 350 352 353 354 357 356 353 354 356 351 347 347 346 345 340 340 342 329 320 318 317 321 315 310 308 293 276 263 258 255 251 248 247 245 244 243 242 242 240 239 238 238 237 236 235 233 232 231 230 229 229 229 228 227 228 228 227 227 227 228 228 228 227 227 226 225 225 226 226 226 225 225 225 227 230 231 232 234 236 238 240 241
340 343 344 344 347 353 355 353 353 354 355 358 359 355 350 348 349 349 347 351 347 328 324 324 321 316 301 302 306 298 288 278 270 265 258 253 249 248 247 246 244 243 242 240 239 238 237 236 234 233 232 231 230 229 229 229 229 229 229 229 229 228 228 228 229 228 228 228 229 228 227 226 226 226 227 228 228 229 231 233 234 235 236 237 240 241
336 336 339 343 344 349 354 352 351 353 358 360 359 359 358 355 355 352 349 350 341 330 329 330 329 312 290 294 301 298 293 287 278 272 266 260 255 252 250 249 247 245 244 242 241 239 237 236 235 233 232 231 230 229 229 229 229 229 229 229 229 229 228 229 229 229 228 229 229 229 228 226 227 229 230 231 232 232 233 235 236 236 236 237 238 240
335 336 340 343 341 345 350 352 350 350 355 356 357 2 3 4 360 350 345 346 340 333 329 327 329 317 303 304 303 296 294 291 283 274 267 265 263 260 255 252 249 247 245 244 242 241 239 237 236 234 233 231 230 230 229 228 228 228 228 228 228 228 228 228 229 229 228 228 228 229 229 228 229 231 232 232 233 233 234 235 237 238 238 238 239 240
334 333 335 338 340 344 343 344 348 350 351 350 354 0 359 1 358 346 344 345 340 335 330 330 331 323 319 320 314 303 298 295 290 282 275 273 271 269 265 259 254 251 248 246 244 242 240 238 236 234 233 232 231 230 229 228 227 227 227 227 227 227 227 227 228 228 228 228 228 228 230 230 231 233 234 233 234 234 235 236 238 239 239 240 241 241
331 324 325 333 337 339 336 336 344 350 350 348 352 356 351 351 352 347 341 338 338 336 333 335 326 316 319 318 313 309 306 299 294 291 286 282 276 273 270 266 261 257 253 250 247 244 241 238 236 234 233 231 230 229 228 228 227 227 227 227 227 227 226 226 227 227 228 228 228 229 230 231 232 234 235 235 235 236 238 239 239 239 239 240 242 243
329 323 325 333 331 328 330 333 337 342 344 345 349 347 343 346 351 350 342 340 345 338 334 338 325 321 327 323 318 321 315 307 304 301 295 287 282 278 273 269 266 262 259 256 252 247 243 239 236 234 232 231 229 228 228 227 227 226 226 225 226 226 227 226 226 227 227 228 228 229 230 231 233 234 235 236 237 238 239 240 241 240 240 241 243 243
320 319 321 327 325 322 327 332 332 333 337 341 341 339 343 346 349 351 346 345 349 339 336 338 325 325 334 331 330 330 318 315 317 310 303 297 292 288 282 276 271 266 263 261 257 251 246 241 237 233 231 230 229 228 227 226 226 226 225 225 224 225 226 226 226 227 227 227 228 229 230 230 231 233 234 236 237 238 239 240 240 240 241 242 244 244
317 320 320 322 323 326 332 331 327 329 333 335 332 334 343 345 345 350 346 344 346 340 339 341 332 327 325 324 330 327 316 317 319 313 308 305 301 297 292 286 278 271 266 263 260 255 249 244 238 233 230 228 227 226 225 225 225 224 224 224 224 224 225 225 226 226 226 227 228 228 229 229 231 231 233 235 237 238 238 239 239 240 240 242 243 244
314 319 319 321 322 326 330 327 324 327 332 333 330 331 335 336 339 342 340 340 344 341 338 340 342 335 326 327 329 322 318 320 318 315 313 311 309 305 299 292 285 278 272 266 262 258 252 245 239 233 229 227 225 224 223 223 223 223 223 222 222 222 223 224 225 225 225 226 227 227 228 229 230 231 233 234 235 236 237 238 239 239 240 241 242 243
310 310 311 316 318 317 321 322 321 323 328 326 324 327 328 328 332 332 330 332 336 339 338 339 339 331 328 337 331 322 324 325 321 320 319 317 314 310 304 299 292 285 278 271 264 259 252 245 238 231 227 225 223 222 221 221 221 221 221 221 220 220 221 222 223 224 225 225 226 226 227 228 229 230 232 233 234 235 236 236 237 238 239 239 241 242
303 303 304 308 309 309 312 314 313 314 318 319 317 319 322 325 329 330 332 331 328 331 333 335 334 328 331 350 345 333 332 329 325 324 323 321 317 314 311 307 300 292 284 276 267 258 250 243 236 228 224 222 220 219 219 219 219 219 219 219 219 219 219 220 221 222 223 224 225 225 226 227 228 229 230 231 232 233 234 234 235 236 237 238 239 240
297 299 298 299 302 306 309 311 311 309 311 313 312 313 317 321 322 323 330 334 330 325 323 329 332 327 336 352 345 336 333 329 328 327 325 323 320 318 318 316 311 302 291 281 269 256 246 239 232 225 221 219 218 217 216 216 217 217 217 217 217 217 218 219 220 221 222 222 223 224 224 225 226 227 228 229 230 231 232 233 234 235 237 238 239 239
293 295 296 299 304 308 312 316 318 316 313 309 310 313 314 315 314 312 319 327 328 323 323 331 328 322 335 349 341 334 334 332 331 329 327 326 324 324 324 324 321 311 300 289 272 254 241 233 228 223 219 217 216 214 213 214 214 215 215 215 215 216 216 217 218 219 220 220 221 222 222 223 225 226 227 228 229 229 230 232 234 235 236 237 238 239
286 292 295 302 310 314 319 322 320 317 314 308 311 314 309 309 312 313 315 318 319 318 315 323 320 316 332 346 340 335 335 334 334 333 331 330 328 328 330 331 329 320 310 298 276 254 238 230 226 222 218 215 213 211 210 211 212 212 212 212 213 214 214 215 216 217 218 218 220 220 221 222 224 225 226 227 228 229 230 231 233 233 234 236 238 240
282 286 288 295 301 303 306 308 307 310 311 309 309 307 302 301 301 307 314 310 313 321 316 308 308 312 325 335 333 333 336 335 335 336 335 334 332 331 334 336 335 328 318 306 283 257 238 229 224 219 215 212 209 208 207 208 209 210 210 210 211 211 212 213 214 215 216 217 219 219 220 221 223 224 225 226 227 229 229 230 231 232 234 236 239 241
284 283 282 282 282 284 291 295 299 306 306 303 302 298 296 296 292 298 307 298 303 318 310 296 298 307 317 326 330 335 338 336 337 339 338 337 335 335 337 339 340 336 326 315 295 260 234 223 217 212 210 208 205 204 204 205 207 208 208 207 208 209 210 211 212 214 215 216 218 219 219 221 223 224 225 226 227 228 229 230 231 232 234 236 240 242
283 282 281 280 278 282 289 292 296 301 299 296 296 294 292 291 287 286 286 289 303 314 304 302 307 306 311 321 330 334 336 337 340 341 339 338 337 338 341 343 345 344 337 324 302 260 226 212 207 206 204 202 200 200 200 202 204 205 205 205 205 207 208 210 211 212 214 215 217 218 219 221 222 223 224 226 227 228 229 230 231 233 234 236 240 243
281 281 282 282 281 283 288 291 294 295 294 293 292 290 289 287 281 277 277 282 290 289 291 305 315 308 310 321 327 331 336 340 340 339 338 337 338 341 345 347 350 350 346 334 307 261 222 208 203 200 199 197 195 196 197 199 201 203 203 203 203 205 206 208 209 211 212 214 216 218 219 220 221 223 224 225 226 228 229 230 231 232 234 237 240 243
278 281 283 284 284 286 287 289 291 291 292 293 291 289 288 284 278 277 279 280 278 277 285 296 302 304 313 322 324 328 336 340 339 337 337 339 341 346 349 351 354 355 354 350 330 265 214 202 197 192 190 189 190 192 195 197 199 200 201 201 201 203 205 206 208 210 212 214 216 217 218 219 220 222 223 225 226 227 228 229 230 233 235 238 240 242
275 279 284 287 288 287 287 290 292 292 292 292 291 290 287 283 280 277 279 281 278 279 286 292 296 304 316 322 325 330 337 342 341 339 341 344 346 350 351 353 358 360 0 8 20 66 171 177 178 178 179 182 187 191 194 196 198 198 198 198 200 202 204 205 207 210 212 213 215 216 217 218 220 222 223 225 226 227 227 228 231 234 236 238 239 242
272 277 284 289 287 286 291 296 296 296 295 292 292 291 285 281 280 279 281 283 279 280 288 294 297 306 317 327 333 336 341 347 346 342 345 348 349 352 352 354 1 4 6 25 55 88 134 155 164 168 174 180 186 190 193 195 196 196 196 197 198 201 203 205 207 209 211 213 214 215 216 218 220 222 224 226 227 226 227 229 232 235 237 238 240 242
270 274 279 282 283 284 290 296 296 298 300 296 292 292 288 283 281 285 290 286 279 282 290 294 298 307 320 332 336 335 341 350 348 344 347 349 349 351 353 356 2 8 13 36 69 94 125 148 161 169 175 181 186 189 192 193 193 194 195 196 198 200 202 205 207 209 211 213 214 215 217 218 220 222 224 226 227 228 229 231 234 237 238 239 240 243
270 271 274 276 279 281 286 295 298 297 294 294 297 296 293 290 285 285 289 285 279 279 284 290 301 311 320 326 328 331 339 346 345 342 344 349 351 352 355 360 7 13 19 36 68 91 116 142 159 171 178 182 186 189 190 191 192 193 194 196 198 200 202 205 207 210 212 213 215 217 218 220 221 223 225 227 228 230 232 234 237 239 240 240 242 243
266 268 271 272 274 278 286 296 297 287 280 290 301 297 291 289 284 284 288 287 280 275 278 286 296 303 309 314 320 330 338 340 340 340 343 351 356 356 358 2 10 20 27 34 61 92 113 139 160 173 179 182 185 186 188 190 192 193 194 196 198 201 203 206 208 211 213 214 216 218 220 221 223 225 227 228 230 232 234 236 238 240 241 242 244 245
263 264 267 269 271 276 282 282 278 282 289 295 298 298 296 294 291 293 296 293 284 275 275 280 287 293 300 305 313 327 337 340 341 343 345 352 358 1 3 6 13 25 34 39 55 90 120 142 162 175 180 182 184 185 187 189 191 192 194 197 200 202 205 207 210 213 215 216 218 219 221 222 224 226 227 228 231 233 235 237 238 239 241 243 245 247
260 262 265 266 267 271 273 271 275 288 296 296 296 296 295 293 293 299 302 297 288 278 273 276 283 288 290 296 309 325 339 345 346 346 348 353 358 3 7 9 15 23 33 44 55 79 121 149 165 175 180 184 185 187 189 190 191 193 196 199 202 205 207 210 213 215 217 218 220 221 223 224 225 227 228 230 232 234 235 237 238 239 241 243 245 247
258 260 260 261 264 267 270 274 281 287 287 287 290 290 290 290 290 297 303 300 295 286 275 272 275 279 283 295 311 329 344 351 347 341 345 352 356 1 5 9 16 23 29 43 60 79 109 143 162 171 179 185 188 190 190 191 193 196 198 202 204 207 209 212 215 217 219 221 222 224 225 226 228 229 230 232 233 234 235 237 239 241 242 244 246 248
259 261 257 257 262 263 263 267 272 273 273 278 283 286 290 289 287 298 304 299 295 293 282 268 268 273 282 297 312 331 345 347 340 332 336 346 352 358 3 5 11 18 24 36 55 82 113 139 155 165 174 182 189 191 192 192 195 197 201 204 206 209 212 215 217 219 221 223 224 225 226 227 229 230 231 232 233 235 236 238 240 242 244 246 248 249
256 258 254 253 256 257 258 263 266 267 270 274 278 283 287 285 288 301 302 291 290 291 276 263 269 274 281 294 307 319 326 329 327 323 325 334 342 350 357 1 5 9 14 25 42 73 113 140 155 165 175 183 187 190 193 195 198 201 203 205 207 211 214 216 218 219 221 223 224 225 226 227 229 230 232 233 234 236 238 240 242 244 245 247 249 250
254 255 254 253 254 254 255 261 267 269 271 272 271 272 276 285 291 291 283 282 287 283 265 259 269 276 281 289 297 302 306 310 314 315 316 321 328 335 341 347 354 357 359 6 22 60 104 141 161 173 182 187 189 190 193 197 200 203 205 206 210 214 216 218 219 220 221 223 224 226 227 228 230 231 233 234 236 238 240 242 244 246 247 249 250 251
251 254 254 253 253 254 255 260 268 274 275 271 266 264 266 276 281 276 274 282 283 271 262 263 269 277 283 284 286 292 299 303 305 305 304 305 309 315 320 327 335 340 345 347 346 32 130 152 167 178 186 190 193 195 198 200 203 206 208 212 216 219 219 219 220 221 222 224 226 227 229 230 232 233 235 237 239 240 242 244 245 246 248 249 251 251
248 250 252 251 252 254 255 256 262 270 272 265 264 266 261 261 268 273 278 284 279 269 266 268 271 277 281 282 284 288 292 298 299 296 292 291 294 298 300 304 309 311 313 310 290 253 217 203 193 190 192 192 195 199 202 205 209 212 215 219 221 221 221 220 221 223 224 226 228 230 232 233 235 236 238 240 241 243 244 246 246 247 248 249 251 252
247 247 251 253 252 251 249 250 255 264 266 258 259 265 259 256 264 273 276 279 279 273 270 271 274 276 277 279 283 284 285 289 291 289 285 283 283 286 287 289 290 290 286 279 268 249 231 226 221 213 208 204 202 203 205 207 211 215 219 222 222 222 222 223 224 226 227 229 231 233 234 236 237 239 241 243 244 245 247 247 248 250 251 252 253 254
247 247 253 256 255 254 254 256 260 264 264 260 260 263 260 258 262 267 270 274 276 274 272 272 273 275 276 277 279 281 281 282 282 282 281 279 279 280 281 281 280 277 274 271 264 251 238 233 229 224 221 218 214 213 212 213 214 217 221 223 222 222 223 224 225 227 229 230 232 234 235 237 239 241 243 244 246 247 248 249 251 252 253 254 255 256
251 251 255 258 259 260 262 263 263 264 264 262 261 262 262 262 264 266 268 269 270 271 271 272 272 273 274 274 275 277 278 277 278 278 277 277 277 277 277 278 276 271 267 264 259 251 243 239 235 231 229 227 224 222 221 221 220 222 224 224 223 224 225 225 227 229 230 232 234 235 236 238 240 242 243 245 247 248 249 250 252 253 254 255 257 258
255 252 254 257 258 259 261 261 261 262 262 262 262 263 263 264 265 265 267 267 268 268 268 269 271 272 272 273 274 274 274 274 274 275 275 274 273 273 274 275 273 267 261 257 252 247 242 240 239 238 235 234 231 229 228 227 227 228 229 228 227 227 227 227 228 230 232 234 235 237 238 239 241 243 244 246 248 249 251 252 253 255 256 257 259 260
254 251 252 254 255 258 262 264 264 264 263 264 264 264 264 264 264 265 266 267 266 266 266 267 269 270 271 272 272 272 272 272 272 272 272 272 271 271 271 270 269 264 259 253 248 243 240 239 239 238 237 237 235 233 232 232 233 233 233 232 231 230 230 230 231 232 234 235 236 238 240 241 242 244 246 248 249 251 252 254 255 256 257 258 259 260
252 250 251 254 256 259 264 267 269 268 267 267 266 265 265 265 265 265 266 266 265 265 265 266 267 267 268 269 270 271 272 272 271 270 270 270 270 270 268 267 266 263 259 253 247 243 241 241 240 238 238 238 237 235 235 236 237 236 235 235 234 233 232 233 234 235 236 238 239 240 242 243 244 246 247 249 250 252 253 254 255 257 259 260 261 262
250 251 253 255 256 258 262 266 267 267 268 268 267 266 265 265 265 264 265 265 264 263 264 265 265 266 266 268 269 270 271 271 270 268 267 268 268 267 266 265 263 262 259 254 248 245 244 245 243 242 241 241 240 238 238 239 239 239 238 237 237 236 235 236 236 237 239 240 241 242 243 244 246 247 249 251 252 254 256 258 259 260 262 263 264 264
249 251 252 254 256 260 264 266 265 265 269 271 270 268 266 265 264 264 263 264 263 263 263 263 264 264 265 267 269 268 269 270 269 266 266 266 266 265 264 263 260 260 258 253 247 247 248 249 247 246 245 245 243 241 241 241 241 241 240 239 238 237 237 237 238 239 241 242 243 244 245 247 249 250 252 254 256 257 259 261 262 263 264 265 266 266